sat.trackr.live / text

‹ back to catalog

ONEWEB-0069

NORAD 45430 · 2020-020G

PAYLOAD ACTIVE UNKNOWN

§ Identity

Operator
Country
UK
Launch date
2020-03-21
Launch site
TYMSC
Launch vehicle
Mass (kg)
RCS (m²)

Purposes: comms

External: N2YO · Heavens-Above · Gunter

§ Orbital elements

Epoch: 2026-09-20T05:13:29.476128Z

Period
109.81 min
Inclination
87.8974°
Eccentricity
0.0001975
Mean motion
13.11415450 rev/d
Perigee alt
1,216.2 km
Apogee alt
1,219.2 km
Semi-major
7,595.8 km
B*
-6.5122e-4
RAAN
2.1834°
Arg perigee
97.2400°
Mean anomaly
262.8953°
Rev number
31,512

§ Raw data

ONEWEB-00691 45430U 20020G   26263.21770227 -.00000218  00000+0 -65122-3 0  99982 45430  87.8974   2.1834 0001975  97.2400 262.8953 13.11415450315125

JSON: /api/v1/satellites/45430 · /tle

For live sub-satellite position, see the globe view (requires WebGL).

§ Visibility from observer

Set your observer location to see the next 7 days of passes ≥ 10°. The values pass through the URL so the page stays shareable.

No JS? Fill the form by hand. The geolocation button needs JavaScript.